Date String (YYYY-MM-DD hh:mm:ss) UTC,Instrument flags,absolute air pressure of the measurement (hPa),sample flow rate (lpm),inlet stack bypass flow (lpm),air temperature of the measurement (°C),ambient temperature measured by the external sensor (°C),aerosol sample conditioner tube jacket temperature (°C),OPC LED temperature (°C),internal box temperature (°C),relative humidity of the measurement (%),span deviation,mass concentration of particles derived from Lorenz-Mie calculation of OPC scattering (μg/m³),mass concentration of particles derived from Lorenz-Mie calculation of OPC scattering (μg/m³),mass concentration of particles derived from Lorenz-Mie calculation of OPC scattering (μg/m³)
DateTimeUTC,F1_M11,P_M11,Q1_M11,Q2_M11,T1_M11,T2_M11,T3_M11,T4_M11,T5_M11,U1_M11,ZSPAN_M11,X0_M11,X2_M11,X1_M11
2023-10-03 14:00:00,SystemResetWarning,0826.4,5.01,000.00,029.3,028.0,000.0,037.8,030.9,29.5,0000.0,0007.02,0003.66,0003.15
2023-10-03 14:01:00,SystemResetWarning,0826.4,5.00,000.00,029.3,028.0,000.0,037.8,030.9,29.7,0000.0,0007.31,0003.63,0003.14
2023-10-03 14:02:00,SystemResetWarning,0826.4,5.01,000.00,029.3,028.0,000.0,037.8,031.0,29.8,0000.0,0007.32,0003.62,0003.13
2023-10-03 14:03:00,SystemResetWarning,0826.4,4.99,000.00,029.3,028.0,000.0,037.8,030.9,29.7,0000.0,0007.23,0003.57,0003.11
2023-10-03 14:04:00,SystemResetWarning,0826.4,4.99,000.00,029.3,028.0,000.0,037.8,030.9,29.4,0000.0,0007.15,0003.54,0003.08
2023-10-03 14:05:00,SystemResetWarning,0826.4,5.00,000.00,029.3,028.0,000.0,037.8,030.9,29.2,0000.0,0007.00,0003.51,0003.05
2023-10-03 14:06:00,SystemResetWarning,0826.4,4.99,000.00,029.3,028.0,000.0,037.8,030.9,29.0,0000.0,0007.22,0003.49,0003.01
2023-10-03 14:07:00,SystemResetWarning,0826.4,5.01,000.00,029.3,028.0,000.0,037.8,030.9,29.0,0000.0,0007.02,0003.47,0003.00
2023-10-03 14:08:00,SystemResetWarning,0826.3,5.01,000.00,029.3,028.0,000.0,037.8,030.9,28.7,0000.0,0007.25,0003.48,0003.01
2023-10-03 14:09:00,SystemResetWarning,0826.3,5.01,000.00,029.3,027.9,000.0,037.8,030.9,28.4,0000.0,0007.10,0003.47,0003.02
2023-10-03 14:10:00,SystemResetWarning,0826.4,4.99,000.00,029.3,027.8,000.0,037.8,030.9,28.4,0000.0,0007.17,0003.49,0003.02
2023-10-03 14:11:00,SystemResetWarning,0826.4,4.99,000.00,029.3,026.4,000.0,037.7,030.8,27.9,0000.0,0006.57,0003.51,0003.02
2023-10-03 14:12:00,SystemResetWarning,0826.4,5.01,000.00,029.2,024.7,000.0,037.7,030.6,28.1,0000.0,0006.38,0003.54,0003.03
2023-10-03 14:13:00,SystemResetWarning,0826.4,5.01,000.00,029.1,024.3,000.0,037.6,030.4,28.0,0000.0,0006.79,0003.56,0003.05
2023-10-03 14:14:00,SystemResetWarning,0826.4,5.00,000.00,028.9,024.6,000.0,037.6,030.2,27.5,0000.0,0006.96,0003.61,0003.09
2023-10-03 14:15:00,SystemResetWarning,0826.3,5.00,000.00,028.8,025.0,000.0,037.5,030.1,27.1,0000.0,0007.01,0003.63,0003.11
2023-10-03 14:16:00,SystemResetWarning,0826.3,5.00,000.00,028.7,025.4,000.0,037.5,030.1,26.7,0000.0,0007.14,0003.67,0003.11
2023-10-03 14:17:00,SystemResetWarning,0826.2,5.01,000.00,028.7,025.7,000.0,037.4,030.1,25.9,0000.0,0006.79,0003.67,0003.12
2023-10-03 14:18:00,SystemResetWarning,0826.3,5.00,000.00,028.7,026.0,000.0,037.4,030.2,24.4,0000.0,0006.75,0003.66,0003.10
2023-10-03 14:19:00,SystemResetWarning,0826.3,4.99,000.00,028.7,026.3,000.0,037.4,030.2,24.6,0000.0,0006.49,0003.62,0003.06
2023-10-03 14:20:00,SystemResetWarning,0826.3,5.01,000.00,028.6,026.5,000.0,037.3,030.2,24.4,0000.0,0006.56,0003.59,0003.01
2023-10-03 14:21:00,SystemResetWarning,0826.3,5.00,000.00,028.6,026.6,000.0,037.3,030.2,24.2,0000.0,0006.80,0003.54,0002.99
2023-10-03 14:22:00,SystemResetWarning,0826.2,5.00,000.00,028.6,026.8,000.0,037.3,030.2,24.3,0000.0,0007.56,0003.50,0002.98
2023-10-03 14:23:00,SystemResetWarning,0826.2,5.00,000.00,028.6,026.9,000.0,037.2,030.2,24.1,0000.0,0007.39,0003.47,0002.98
2023-10-03 14:24:00,SystemResetWarning,0826.2,4.99,000.00,028.6,027.0,000.0,037.2,030.3,24.1,0000.0,0007.10,0003.45,0002.96
2023-10-03 14:25:00,SystemResetWarning,0826.2,4.99,000.00,028.6,027.1,000.0,037.2,030.3,24.1,0000.0,0007.10,0003.46,0002.96
2023-10-03 14:26:00,SystemResetWarning,0826.3,5.01,000.00,028.6,027.1,000.0,037.2,030.3,24.4,0000.0,0007.13,0003.46,0002.96
2023-10-03 14:27:00,SystemResetWarning,0826.3,5.01,000.00,028.6,027.2,000.0,037.2,030.3,23.5,0000.0,0007.03,0003.45,0002.96
2023-10-03 14:28:00,SystemResetWarning,0826.3,5.01,000.00,028.6,027.2,000.0,037.2,030.3,22.8,0000.0,0006.91,0003.43,0002.96
2023-10-03 14:29:00,SystemResetWarning,0826.3,5.01,000.00,028.7,027.3,000.0,037.2,030.3,23.2,0000.0,0007.02,0003.45,0002.97
2023-10-03 14:30:00,SystemResetWarning,0826.3,5.00,000.00,028.7,027.3,000.0,037.2,030.3,21.9,0000.0,0007.19,0003.46,0002.98
2023-10-03 14:31:00,SystemResetWarning,0826.3,4.99,000.00,028.7,027.3,000.0,037.2,030.3,21.3,0000.0,0007.12,0003.48,0003.02
2023-10-03 14:32:00,SystemResetWarning,0826.4,4.99,000.00,028.7,027.4,000.0,037.2,030.3,21.4,0000.0,0006.85,0003.47,0003.02
2023-10-03 14:33:00,SystemResetWarning,0826.3,5.00,000.00,028.7,027.4,000.0,037.2,030.3,20.5,0000.0,0005.64,0003.50,0003.05
2023-10-03 14:34:00,SystemResetWarning,0826.3,5.00,000.00,028.7,027.4,000.0,037.2,030.3,20.0,0000.0,0005.74,0003.51,0003.04
2023-10-03 14:35:00,SystemResetWarning,0826.3,5.00,000.00,028.7,027.4,000.0,037.2,030.3,19.9,0000.0,0005.86,0003.50,0003.02
2023-10-03 14:36:00,SystemResetWarning,0826.3,5.00,000.00,028.7,027.4,000.0,037.2,030.3,19.7,0000.0,0005.77,0003.46,0002.99
2023-10-03 14:37:00,SystemResetWarning,0826.3,5.00,000.00,028.7,027.4,000.0,037.2,030.3,20.3,0000.0,0005.68,0003.44,0002.97
2023-10-03 14:38:00,SystemResetWarning,0826.3,5.00,000.00,028.7,027.4,000.0,037.2,030.3,20.6,0000.0,0005.77,0003.46,0002.98
2023-10-03 14:39:00,SystemResetWarning,0826.3,5.00,000.00,028.7,027.4,000.0,037.2,030.3,20.0,0000.0,0005.89,0003.48,0002.99
2023-10-03 14:40:00,SystemResetWarning,0826.3,5.00,000.00,028.7,027.4,000.0,037.2,030.3,20.5,0000.0,0005.80,0003.47,0002.98
2023-10-03 14:41:00,SystemResetWarning,0826.3,5.00,000.00,028.7,027.4,000.0,037.2,030.3,18.4,0000.0,0005.88,0003.48,0002.99
2023-10-03 14:42:00,SystemResetWarning,0826.3,5.00,000.00,028.7,027.4,000.0,037.2,030.3,17.8,0000.0,0006.66,0003.48,0003.00
2023-10-03 14:43:00,SystemResetWarning,0826.3,5.00,000.00,028.7,027.4,000.0,037.2,030.3,19.1,0000.0,0007.23,0003.56,0003.02
2023-10-03 14:44:00,SystemResetWarning,0826.3,5.00,000.00,028.7,027.5,000.0,037.2,030.4,19.0,0000.0,0007.28,0003.56,0003.02
2023-10-03 14:45:00,SystemResetWarning,0826.4,4.99,000.00,028.7,027.5,000.0,037.2,030.4,19.2,0000.0,0007.29,0003.58,0003.05
2023-10-03 14:46:00,SystemResetWarning,0826.4,5.01,000.00,028.7,027.6,000.0,037.2,030.5,18.1,0000.0,0007.15,0003.58,0003.06
2023-10-03 14:47:00,SystemResetWarning,0826.4,5.01,000.00,028.8,027.6,000.0,037.2,030.5,18.2,0000.0,0007.04,0003.57,0003.04
2023-10-03 14:48:00,SystemResetWarning,0826.4,5.00,000.00,028.8,027.7,000.0,037.2,030.6,16.8,0000.0,0007.05,0003.56,0003.04
2023-10-03 14:49:00,SystemResetWarning,0826.4,4.99,000.00,028.8,027.7,000.0,037.2,030.6,17.0,0000.0,0007.07,0003.55,0003.02
2023-10-03 14:50:00,SystemResetWarning,0826.4,4.99,000.00,028.9,027.7,000.0,037.2,030.6,17.9,0000.0,0006.94,0003.50,0002.96
2023-10-03 14:51:00,SystemResetWarning,0826.4,5.00,000.00,028.9,027.7,000.0,037.3,030.6,17.7,0000.0,0006.82,0003.45,0002.88
2023-10-03 14:52:00,SystemResetWarning,0826.4,5.01,000.00,028.9,027.8,000.0,037.3,030.7,18.2,0000.0,0006.60,0003.39,0002.80
2023-10-03 14:53:00,SystemResetWarning,0826.4,5.01,000.00,028.9,027.8,000.0,037.3,030.7,21.7,0000.0,0006.04,0003.34,0002.70
2023-10-03 14:54:00,SystemResetWarning,0826.4,5.00,000.00,029.0,027.8,000.0,037.3,030.7,23.0,0000.0,0005.37,0003.21,0002.55
2023-10-03 14:55:00,SystemResetWarning,0826.4,4.99,000.00,029.0,027.9,000.0,037.3,030.8,23.9,0000.0,0005.13,0003.12,0002.39
2023-10-03 14:56:00,SystemResetWarning,0826.5,4.99,000.00,029.0,027.9,000.0,037.4,030.8,23.4,0000.0,0004.92,0002.96,0002.23
2023-10-03 14:57:00,SystemResetWarning,0826.5,4.99,000.00,029.1,028.0,000.0,037.4,030.8,22.6,0000.0,0004.68,0002.76,0002.07
2023-10-03 14:58:00,SystemResetWarning,0826.5,5.01,000.00,029.1,028.0,000.0,037.4,030.9,23.2,0000.0,0004.56,0002.64,0001.94
2023-10-03 14:59:00,SystemResetWarning,0826.4,5.01,000.00,029.1,028.0,000.0,037.4,030.9,22.8,0000.0,0004.37,0002.50,0001.82
